Flagstaff, AZ

4:51 AM MST on November 25, 2017 (GMT -0700)
Flagstaff Pulliam

Weather History for KFLG - September, 2014

Change the Weather History Date:

Monday, September 29, 2014

  Actual Average Record
Temperature  
Mean Temperature 47 °F 53 °F  
Max Temperature 61 °F 68 °F 83 °F (2010)
Min Temperature 32 °F 37 °F 22 °F (1902)
Degree Days  
Heating Degree Days 18 12  
Month to date heating degree days 142 217  
Since 1 July heating degree days 236 305  
Cooling Degree Days 0 0  
Month to date cooling degree days 0 0  
Year to date cooling degree days 109 114  
Moisture  
Dew Point 32 °F    
Average Humidity 60    
Maximum Humidity 92    
Minimum Humidity 28    
Precipitation  
Precipitation 0.00 in 0.07 in 1.70 in (1971)
Month to date precipitation 3.10 2.32  
Year to date precipitation 15.94 16.51  
Snow  
Snow 0.00 in 0.00 in 0.30 in (1905)
Month to date snowfall 0.0 0.0  
Since 1 July snowfall 0.0 0.0  
Snow Depth 0.00 in    
Sea Level Pressure  
Sea Level Pressure 29.95 in    
Wind  
Wind Speed 5 mph (WSW)    
Max Wind Speed 20 mph    
Max Gust Speed 25 mph    
Visibility 10 miles    
Events      
T = Trace of Precipitation, MM = Missing Value Source: NWS Daily Summary

Daily Weather History Graph

Daily Weather History Graph

Search for Another Location

Airport or City:

Trip Planner

Search our weather history database for the weather conditions in past years. The results will help you decide how hot, cold, wet, or windy it might be!

Date:

Astronomy

Sep. 29, 2014 Rise Set
Actual Time 6:20 AM MST 6:13 PM MST
Civil Twilight 5:54 AM MST 6:38 PM MST
Nautical Twilight 5:25 AM MST 7:07 PM MST
Astronomical Twilight 4:55 AM MST 7:37 PM MST
Moon 11:25 AM MST (9/29) 10:00 PM MST (9/29)
Length of Visible Light 12h 43m
Length of Day
11h 53m
Waxing Crescent, 29% of the Moon is Illuminated
Sep 29
Waxing Crescent
Oct 1
First Quarter
Oct 8
Full
Oct 15
Last Quarter
Oct 23
New

Hourly Weather History & Observations

Time (MST) Temp. Windchill Dew Point Humidity Pressure Visibility Wind Dir Wind Speed Gust Speed Precip Events Conditions
12:57 AM 37.0 °F - 34.0 °F 89% 29.93 in 10.0 mi Calm Calm - N/A   Clear
1:57 AM 37.9 °F - 34.0 °F 86% 29.91 in 10.0 mi Calm Calm - N/A   Clear
2:57 AM 35.1 °F - 32.0 °F 89% 29.92 in 10.0 mi Calm Calm - N/A   Clear
3:57 AM 35.1 °F - 32.0 °F 89% 29.91 in 10.0 mi Calm Calm - N/A   Clear
4:57 AM 34.0 °F - 30.9 °F 89% 29.93 in 10.0 mi Calm Calm - N/A   Clear
5:57 AM 32.0 °F - 30.0 °F 92% 29.96 in 10.0 mi Calm Calm - N/A   Clear
6:57 AM 36.0 °F - 34.0 °F 93% 29.97 in 10.0 mi Calm Calm - N/A   Clear
7:57 AM 44.1 °F - 35.1 °F 71% 29.97 in 10.0 mi Calm Calm - N/A   Overcast
8:57 AM 48.9 °F - 36.0 °F 61% 29.98 in 10.0 mi SW 8.1 mph - N/A   Mostly Cloudy
9:57 AM 54.0 °F - 28.0 °F 37% 29.97 in 10.0 mi SW 13.8 mph 20.7 mph N/A   Clear
10:57 AM 57.0 °F - 24.1 °F 28% 29.96 in 10.0 mi SW 11.5 mph - N/A   Clear
11:57 AM 57.9 °F - 28.9 °F 33% 29.96 in 10.0 mi West 9.2 mph - N/A   Clear
12:57 PM 60.1 °F - 30.0 °F 32% 29.94 in 10.0 mi West 8.1 mph - N/A   Clear
1:57 PM 61.0 °F - 30.0 °F 31% 29.92 in 10.0 mi WSW 11.5 mph 18.4 mph N/A   Clear
2:57 PM 60.1 °F - 30.0 °F 32% 29.94 in 10.0 mi SSW 11.5 mph 17.3 mph N/A   Clear
3:57 PM 61.0 °F - 30.0 °F 31% 29.93 in 10.0 mi Variable 5.8 mph - N/A   Clear
4:57 PM 59.0 °F - 30.0 °F 33% 29.95 in 10.0 mi SSW 11.5 mph - N/A   Clear
5:57 PM 55.9 °F - 30.9 °F 39% 29.99 in 10.0 mi WSW 8.1 mph - N/A   Clear
6:57 PM 50.0 °F - 33.1 °F 52% 30.00 in 10.0 mi WSW 5.8 mph - N/A   Clear
7:57 PM 50.0 °F - 30.9 °F 48% 29.97 in 10.0 mi Calm Calm - N/A   Clear
8:57 PM 43.0 °F - 34.0 °F 71% 29.99 in 10.0 mi Calm Calm - N/A   Clear
9:57 PM 41.0 °F - 33.1 °F 73% 29.98 in 10.0 mi Calm Calm - N/A   Clear
10:57 PM 39.9 °F 37.8 °F 33.1 °F 77% 29.96 in 10.0 mi North 3.5 mph - N/A   Clear
11:57 PM 39.0 °F - 33.1 °F 79% 29.96 in 10.0 mi Calm Calm - N/A   Clear